period_start,C,m1,H,J0,J1,J2,J3,J4,J5,JA,JB,JC,JD,JJ,JK,JN,#
2017-04-03 00:02:33,0.31,2.30,0.00,24.74,27.17,30.32,14.11,48.52,996.12,2029.02,2697.25,2478.57,2844.39,600.23,580.76,16.80,0000 0000 0000 0000 000000
2017-04-03 00:07:35,0.24,2.32,0.00,24.77,27.17,30.34,14.05,48.43,996.10,2029.02,2692.81,2475.34,2840.64,599.60,580.17,16.85,0000 0000 0000 0000 000000
2017-04-03 00:12:36,0.06,2.32,0.00,24.95,27.19,30.34,14.05,48.45,995.87,2029.02,2691.60,2474.38,2839.72,599.65,579.75,16.90,0000 0000 0000 0000 000000
2017-04-03 00:17:37,0.09,2.33,0.00,25.25,27.20,30.35,14.08,48.47,995.66,2029.01,2690.70,2473.32,2838.50,600.10,579.49,16.95,0000 0000 0000 0000 000000
2017-04-03 00:22:39,0.29,2.34,0.00,25.13,27.22,30.36,14.08,48.51,995.63,2029.00,2687.74,2470.17,2835.17,599.64,579.15,17.00,0000 0000 0000 0000 000000
2017-04-03 00:27:40,0.37,2.36,0.00,24.83,27.22,30.33,14.13,48.51,995.65,2029.00,2682.72,2465.89,2830.46,600.27,580.44,17.05,0000 0000 0000 0000 000000
2017-04-03 00:32:41,0.12,2.37,0.00,24.79,27.23,30.33,14.08,48.64,995.62,2028.98,2679.80,2463.75,2827.96,600.09,580.28,17.10,0000 0000 0000 0000 000000
2017-04-03 00:37:43,0.05,2.37,0.00,24.93,27.25,30.35,14.12,48.60,995.60,2028.98,2678.77,2462.99,2827.06,599.72,579.63,17.15,0000 0000 0000 0000 000000
2017-04-03 00:42:44,0.07,2.38,0.00,25.01,27.25,30.35,14.00,48.53,995.30,2028.98,2677.78,2462.15,2826.23,599.82,579.30,17.20,0000 0000 0000 0000 000000
2017-04-03 00:47:45,0.05,2.38,0.00,24.86,27.25,30.35,14.08,48.31,995.14,2028.96,2676.77,2461.72,2825.65,600.03,579.83,17.25,0000 0000 0000 0000 000000
2017-04-03 00:52:47,0.05,2.38,0.00,24.79,27.25,30.37,14.05,48.40,995.13,2028.93,2675.67,2461.02,2824.87,599.69,579.62,17.30,0000 0000 0000 0000 000000
2017-04-03 00:57:48,0.07,2.38,0.00,24.82,27.25,30.38,14.08,48.43,995.03,2028.95,2674.59,2460.31,2824.06,600.21,580.12,17.35,0000 0000 0000 0000 000000
2017-04-03 01:02:50,0.02,2.39,0.00,24.86,27.24,30.39,14.03,48.30,994.69,2028.86,2673.95,2459.98,2823.33,600.09,579.63,17.40,0000 0000 0000 0000 000000
2017-04-03 01:07:51,0.05,2.39,0.00,24.80,27.23,30.39,14.09,48.43,994.64,2028.91,2673.17,2459.27,2822.87,599.97,579.59,17.45,0000 0000 0000 0000 000000
2017-04-03 01:12:52,0.06,2.39,0.00,24.82,27.22,30.40,13.97,48.36,994.64,2028.92,2672.07,2458.69,2822.05,599.38,579.04,17.50,0000 0000 0000 0000 000000
2017-04-03 01:17:53,0.06,2.40,0.00,24.87,27.22,30.38,14.09,48.46,994.64,2028.95,2671.17,2458.02,2821.34,599.78,579.36,17.55,0000 0000 0000 0000 000000
2017-04-03 01:22:55,0.07,2.40,0.00,24.87,27.22,30.41,14.03,48.34,994.64,2028.96,2670.04,2457.24,2820.56,600.03,579.63,17.60,0000 0000 0000 0000 000000
2017-04-03 01:27:56,0.05,2.40,0.00,24.82,27.22,30.39,14.04,48.27,994.64,2028.97,2669.09,2456.73,2819.81,599.91,579.50,17.65,0000 0000 0000 0000 000000
2017-04-03 01:32:57,0.05,2.41,0.00,24.82,27.22,30.40,14.09,48.47,994.63,2028.95,2668.07,2456.01,2819.01,599.81,579.38,17.70,0000 0000 0000 0000 000000
2017-04-03 01:37:59,0.07,2.41,0.00,24.80,27.22,30.40,14.07,48.33,994.45,2028.97,2667.14,2455.29,2818.19,599.98,579.55,17.75,0000 0000 0000 0000 000000
2017-04-03 01:43:00,0.04,2.41,0.00,24.83,27.22,30.40,13.96,48.39,994.24,2028.97,2666.32,2454.93,2817.72,599.52,578.88,17.80,0000 0000 0000 0000 000000
2017-04-03 01:48:01,0.06,2.41,0.00,24.83,27.22,30.39,14.10,48.42,994.19,2028.98,2665.58,2454.14,2817.01,600.03,579.42,17.85,0000 0000 0000 0000 000000
2017-04-03 01:53:02,0.06,2.42,0.00,24.86,27.22,30.41,13.98,48.40,994.16,2028.98,2664.63,2453.69,2816.20,599.90,579.24,17.90,0000 0000 0000 0000 000000
2017-04-03 01:58:03,0.03,2.42,0.00,24.86,27.22,30.39,14.05,48.33,994.17,2028.98,2663.84,2453.02,2815.75,600.03,579.30,17.95,0000 0000 0000 0000 000000
2017-04-03 02:03:05,0.05,2.42,0.00,24.89,27.22,30.41,14.06,48.40,994.16,2028.99,2663.00,2452.48,2815.04,600.13,579.17,18.00,0000 0000 0000 0000 000000
2017-04-03 02:08:06,0.04,2.42,0.00,24.87,27.24,30.40,14.07,48.42,994.17,2028.97,2662.23,2451.99,2814.50,600.00,579.29,18.05,0000 0000 0000 0000 000000
2017-04-03 02:13:07,0.07,2.43,0.00,24.85,27.25,30.38,14.04,48.42,994.18,2028.98,2661.50,2451.22,2813.72,599.83,579.15,18.10,0000 0000 0000 0000 000000
2017-04-03 02:18:08,0.14,2.43,0.00,24.86,27.25,30.38,14.02,48.57,994.17,2028.98,2659.71,2449.75,2812.09,600.17,579.37,18.15,0000 0000 0000 0000 000000
2017-04-03 02:23:10,0.11,2.44,0.00,24.87,27.27,30.37,14.07,48.63,994.17,2028.95,2657.73,2448.32,2810.41,600.13,579.36,18.20,0000 0000 0000 0000 000000
2017-04-03 02:28:11,0.09,2.44,0.00,24.85,27.27,30.37,14.01,48.42,994.17,2028.95,2656.44,2447.35,2809.33,599.47,578.74,18.25,0000 0000 0000 0000 000000
2017-04-03 02:33:12,0.06,2.45,0.00,24.87,27.27,30.37,14.06,48.48,994.17,2028.97,2655.42,2446.78,2808.62,599.97,579.22,18.30,0000 0000 0000 0000 000000
2017-04-03 02:38:13,0.06,2.45,0.00,24.88,27.30,30.36,14.04,48.41,994.17,2028.93,2654.34,2445.90,2807.73,600.25,579.46,18.36,0000 0000 0000 0000 000000
2017-04-03 02:43:14,0.08,2.45,0.00,24.89,27.30,30.36,14.07,48.58,994.17,2028.81,2653.11,2444.93,2806.62,600.22,579.25,18.41,0000 0000 0000 0000 000000
2017-04-03 02:48:15,0.09,2.46,0.00,24.88,27.31,30.36,13.98,48.39,994.17,2028.69,2651.59,2443.82,2805.26,599.89,579.11,18.46,0000 0000 0000 0000 000000
2017-04-03 02:53:16,0.10,2.46,0.00,24.88,27.32,30.34,14.06,48.52,994.16,2028.58,2649.94,2442.61,2803.93,600.20,579.40,18.51,0000 0000 0000 0000 000000
2017-04-03 02:58:17,0.10,2.47,0.00,24.90,27.32,30.36,14.03,48.58,994.17,2028.49,2648.31,2441.36,2802.59,599.98,579.14,18.56,0000 0000 0000 0000 000000
2017-04-03 03:03:18,0.08,2.47,0.00,24.89,27.34,30.35,14.02,48.54,994.18,2028.25,2646.43,2439.91,2800.96,600.04,579.22,18.61,0000 0000 0000 0000 000000
2017-04-03 03:08:19,0.11,2.48,0.00,24.90,27.35,30.35,14.03,48.45,994.17,2028.09,2644.57,2438.56,2799.48,599.66,578.85,18.66,0000 0000 0000 0000 000000
2017-04-03 03:13:21,0.09,2.49,0.00,24.88,27.35,30.38,14.13,48.58,994.16,2028.06,2642.93,2437.36,2798.04,600.18,579.35,18.71,0000 0000 0000 0000 000000
2017-04-03 03:18:23,0.10,2.49,0.00,24.90,27.35,30.36,14.04,48.50,994.16,2028.07,2641.33,2436.15,2796.69,600.29,579.47,18.76,0000 0000 0000 0000 000000
2017-04-03 03:23:24,0.10,2.50,0.00,24.94,27.37,30.35,14.03,48.52,994.16,2028.02,2639.73,2434.93,2795.43,599.92,579.02,18.81,0000 0000 0000 0000 000000
2017-04-03 03:28:25,0.10,2.50,0.00,24.92,27.37,30.36,14.03,48.69,994.16,2028.02,2638.11,2433.78,2794.02,599.70,578.78,18.86,0000 0000 0000 0000 000000
2017-04-03 03:33:27,0.11,2.51,0.00,24.91,27.37,30.37,14.07,48.59,994.16,2028.01,2636.55,2432.60,2792.69,600.09,579.28,18.91,0000 0000 0000 0000 000000
2017-04-03 03:38:28,0.09,2.51,0.00,24.92,27.39,30.38,14.07,48.64,994.16,2028.01,2635.16,2431.54,2791.48,600.26,579.24,18.96,0000 0000 0000 0000 000000
2017-04-03 03:43:30,0.09,2.52,0.00,24.96,27.40,30.36,14.03,48.60,994.16,2028.00,2633.58,2430.51,2790.16,599.78,578.89,19.01,0000 0000 0000 0000 000000
2017-04-03 03:48:31,0.18,2.52,0.00,24.94,27.40,30.34,14.07,48.56,994.16,2028.00,2631.25,2428.84,2788.31,600.05,579.16,19.06,0000 0000 0000 0000 000000
2017-04-03 03:53:32,0.21,2.53,0.00,24.94,27.41,30.35,14.02,48.60,994.16,2028.00,2627.98,2426.52,2785.72,599.63,578.77,19.11,0000 0000 0000 0000 000000
2017-04-03 03:58:33,0.19,2.54,0.00,24.95,27.42,30.38,14.05,48.61,994.16,2028.00,2625.09,2424.45,2783.41,600.07,579.18,19.16,0000 0000 0000 0000 000000
2017-04-03 04:03:35,0.17,2.55,0.00,24.96,27.42,30.38,14.08,48.67,994.16,2028.00,2622.42,2422.56,2781.23,600.38,579.29,19.21,0000 0000 0000 0000 000000
2017-04-03 04:08:36,0.15,2.56,0.00,24.96,27.42,30.37,14.05,48.49,994.16,2028.00,2620.11,2420.85,2779.36,599.91,578.88,19.26,0000 0000 0000 0000 000000
2017-04-03 04:13:37,0.15,2.57,0.00,24.99,27.43,30.38,13.97,48.47,994.17,2028.00,2617.75,2419.22,2777.50,599.65,578.64,19.31,0000 0000 0000 0000 000000
2017-04-03 04:18:38,0.15,2.58,0.00,24.98,27.44,30.39,14.10,48.60,994.17,2028.00,2615.43,2417.59,2775.65,600.29,579.24,19.36,0000 0000 0000 0000 000000
2017-04-03 04:23:40,0.16,2.59,0.00,25.00,27.45,30.39,14.01,48.61,994.17,2028.00,2613.09,2415.87,2773.71,599.86,578.80,19.41,0000 0000 0000 0000 000000
2017-04-03 04:28:41,0.15,2.59,0.00,25.00,27.45,30.42,14.02,48.69,994.17,2028.00,2610.78,2414.25,2771.85,599.87,578.83,19.46,0000 0000 0000 0000 000000
2017-04-03 04:33:42,0.15,2.60,0.00,25.04,27.46,30.39,14.05,48.60,994.23,2027.99,2608.46,2412.63,2770.00,599.95,578.82,19.51,0000 0000 0000 0000 000000
2017-04-03 04:38:44,0.14,2.61,0.00,25.03,27.47,30.38,14.03,48.68,994.37,2027.99,2606.30,2411.07,2768.34,599.79,578.84,19.56,0000 0000 0000 0000 000000
2017-04-03 04:43:45,0.15,2.62,0.00,25.03,27.47,30.39,14.04,48.58,994.51,2027.99,2604.14,2409.55,2766.59,599.95,579.07,19.61,0000 0000 0000 0000 000000
2017-04-03 04:48:47,0.15,2.62,0.00,25.03,27.48,30.41,14.10,48.72,994.63,2027.99,2601.82,2407.87,2764.72,599.98,579.09,19.66,0000 0000 0000 0000 000000
2017-04-03 04:53:48,0.16,2.63,0.00,25.04,27.50,30.39,14.03,48.73,994.68,2027.99,2599.43,2406.11,2762.73,599.58,578.82,19.71,0000 0000 0000 0000 000000
2017-04-03 04:58:49,0.15,2.64,0.00,25.05,27.50,30.42,14.04,48.70,995.12,2027.98,2597.14,2404.50,2760.91,599.71,579.10,19.76,0000 0000 0000 0000 000000
2017-04-03 05:03:51,0.20,2.65,0.00,25.05,27.51,30.40,14.08,48.69,995.19,2027.97,2594.42,2402.44,2758.63,600.34,579.79,19.81,0000 0000 0000 0000 000000
2017-04-03 05:08:52,0.22,2.66,0.00,25.06,27.52,30.43,14.00,48.73,995.34,2027.97,2591.00,2400.10,2755.92,599.48,579.04,19.86,0000 0000 0000 0000 000000
2017-04-03 05:13:53,0.19,2.67,0.00,25.05,27.52,30.42,14.11,48.65,995.38,2027.97,2588.02,2398.01,2753.58,600.25,579.93,19.91,0000 0000 0000 0000 000000
2017-04-03 05:18:54,0.17,2.68,0.00,25.05,27.52,30.43,14.12,48.62,995.49,2027.97,2585.39,2396.15,2751.51,600.56,580.19,19.96,0000 0000 0000 0000 000000
2017-04-03 05:23:55,0.20,2.69,0.00,25.05,27.52,30.44,14.02,48.95,995.33,2027.98,2582.03,2394.22,2749.12,600.27,579.82,20.01,0000 0000 0000 0000 000000
2017-04-03 05:28:56,0.09,2.70,0.00,25.08,27.53,30.46,14.07,49.17,995.15,2027.99,2580.28,2393.08,2747.81,599.97,579.27,20.06,0000 0000 0000 0000 000000
2017-04-03 05:33:58,0.09,2.70,0.00,25.10,27.54,30.45,14.07,49.38,995.15,2027.99,2579.10,2392.17,2746.59,600.14,579.44,20.11,0000 0000 0000 0000 000000
2017-04-03 05:38:59,0.07,2.71,0.00,25.07,27.54,30.46,14.03,49.31,995.17,2027.99,2578.01,2391.24,2745.59,599.96,579.37,20.16,0000 0000 0000 0000 000000
2017-04-03 05:44:00,0.08,2.71,0.00,25.06,27.54,30.46,14.00,49.41,995.18,2027.99,2576.94,2390.43,2744.62,599.93,579.36,20.21,0000 0000 0000 0000 000000
2017-04-03 05:49:01,0.07,2.71,0.00,25.07,27.54,30.47,14.07,49.67,995.17,2027.99,2575.85,2389.66,2743.67,600.00,579.39,20.26,0000 0000 0000 0000 000000
2017-04-03 05:54:02,0.07,2.72,0.00,25.08,27.54,30.49,14.06,49.38,995.56,2027.99,2574.74,2388.81,2742.67,600.13,579.62,20.31,0000 0000 0000 0000 000000
2017-04-03 05:59:04,0.07,2.72,0.00,25.16,27.54,30.49,14.08,49.10,995.63,2027.99,2573.61,2387.96,2741.63,599.62,579.40,20.36,0000 0000 0000 0000 000000
2017-04-03 06:04:05,0.08,2.72,0.00,25.22,27.55,30.47,14.11,49.22,995.70,2027.99,2572.51,2387.08,2740.56,600.11,579.58,20.41,0000 0000 0000 0000 000000
2017-04-03 06:09:06,0.08,2.73,0.00,25.06,27.55,30.47,14.02,49.38,996.00,2027.98,2571.53,2386.22,2739.63,599.71,579.69,20.46,0000 0000 0000 0000 000000
2017-04-03 06:14:07,0.07,2.73,0.00,25.00,27.53,30.47,14.09,49.33,996.11,2027.99,2570.45,2385.59,2738.69,599.85,579.91,20.51,0000 0000 0000 0000 000000
2017-04-03 06:19:09,0.06,2.74,0.00,25.07,27.52,30.50,14.00,49.21,996.13,2027.99,2569.29,2384.83,2737.69,599.75,579.80,20.56,0000 0000 0000 0000 000000
2017-04-03 06:24:10,0.07,2.74,0.00,25.23,27.52,30.53,14.13,49.59,996.11,2027.99,2568.18,2383.98,2736.73,600.18,579.78,20.61,0000 0000 0000 0000 000000
2017-04-03 06:29:11,0.10,2.74,0.00,25.34,27.52,30.58,14.01,49.19,996.15,2027.99,2566.77,2383.04,2735.61,599.93,579.40,20.66,0000 0000 0000 0000 000000
2017-04-03 06:34:12,0.08,2.75,0.00,25.06,27.52,30.53,14.06,49.27,996.30,2027.99,2565.55,2382.07,2734.46,599.85,579.96,20.71,0000 0000 0000 0000 000000
2017-04-03 06:39:13,0.07,2.75,0.00,24.79,27.52,30.50,14.09,48.95,996.72,2027.99,2564.69,2381.21,2733.54,599.92,580.76,20.76,0000 0000 0000 0000 000000
2017-04-03 06:44:15,0.09,2.76,0.00,24.93,27.51,30.56,14.10,48.89,996.97,2027.99,2563.46,2380.28,2732.32,600.06,580.76,20.81,0000 0000 0000 0000 000000
2017-04-03 06:49:16,0.09,2.76,0.00,25.14,27.50,30.59,14.11,48.96,997.18,2027.99,2562.13,2379.29,2731.10,599.99,580.43,20.86,0000 0000 0000 0000 000000
2017-04-03 06:54:17,0.11,2.77,0.00,25.15,27.50,30.58,14.07,48.87,997.53,2027.99,2560.66,2378.17,2729.74,600.02,580.60,20.91,0000 0000 0000 0000 000000
2017-04-03 06:59:18,0.10,2.77,0.00,24.85,27.50,30.52,14.13,48.76,997.57,2027.99,2559.08,2377.00,2728.36,600.09,581.16,20.96,0000 0000 0000 0000 000000
2017-04-03 07:04:20,0.14,2.78,0.00,24.73,27.47,30.48,14.09,48.76,997.49,2027.99,2557.53,2375.71,2726.81,599.88,581.32,21.01,0000 0000 0000 0000 000000
2017-04-03 07:09:21,0.10,2.78,0.00,24.96,27.47,30.51,14.10,48.88,997.24,2027.99,2555.92,2374.62,2725.52,600.20,581.02,21.06,0000 0000 0000 0000 000000
2017-04-03 07:14:22,0.10,2.79,0.00,25.13,27.47,30.56,14.11,48.94,997.42,2027.99,2554.40,2373.52,2724.20,600.19,580.74,21.11,0000 0000 0000 0000 000000
2017-04-03 07:19:23,0.11,2.80,0.00,25.15,27.45,30.54,14.05,48.88,997.57,2027.99,2552.77,2372.44,2722.85,599.72,580.37,21.16,0000 0000 0000 0000 000000
2017-04-03 07:24:24,0.11,2.80,0.00,24.95,27.45,30.53,14.10,48.69,997.59,2027.99,2551.07,2371.30,2721.41,600.25,581.33,21.21,0000 0000 0000 0000 000000
2017-04-03 07:29:25,0.10,2.81,0.00,25.01,27.44,30.54,14.10,48.73,997.67,2027.99,2549.38,2370.09,2719.99,599.92,580.88,21.26,0000 0000 0000 0000 000000
2017-04-03 07:34:27,0.10,2.81,0.00,25.12,27.43,30.54,14.10,48.87,997.62,2027.99,2548.04,2369.03,2718.67,599.91,580.68,21.31,0000 0000 0000 0000 000000
2017-04-03 07:39:28,0.12,2.82,0.00,25.00,27.42,30.54,14.06,48.68,997.71,2027.99,2546.59,2367.84,2717.28,599.77,580.63,21.36,0000 0000 0000 0000 000000
2017-04-03 07:44:30,0.12,2.82,0.00,24.88,27.42,30.52,14.10,48.77,998.02,2027.99,2544.85,2366.72,2715.73,599.21,580.75,21.42,0000 0000 0000 0000 000000
2017-04-03 07:49:31,0.11,2.83,0.00,25.00,27.42,30.53,14.11,48.66,998.06,2027.99,2543.18,2365.52,2714.23,600.14,581.33,21.47,0000 0000 0000 0000 000000
2017-04-03 07:54:32,0.12,2.84,0.00,25.08,27.40,30.53,14.15,48.72,998.06,2027.99,2541.57,2364.34,2712.76,600.06,581.11,21.52,0000 0000 0000 0000 000000
2017-04-03 07:59:33,0.13,2.84,0.00,25.05,27.40,30.52,14.06,48.73,998.05,2028.00,2539.68,2362.98,2711.20,599.78,580.94,21.57,0000 0000 0000 0000 000000
2017-04-03 08:04:35,0.13,2.85,0.00,24.91,27.40,30.51,14.13,48.83,998.06,2028.00,2537.87,2361.66,2709.57,600.08,581.40,21.62,0000 0000 0000 0000 000000
2017-04-03 08:09:36,0.11,2.86,0.00,24.97,27.39,30.51,14.18,48.92,998.07,2028.00,2536.35,2360.55,2708.16,600.06,581.35,21.67,0000 0000 0000 0000 000000
2017-04-03 08:14:37,0.13,2.86,0.00,25.03,27.37,30.53,14.08,48.88,998.41,2028.00,2534.59,2359.26,2706.60,599.97,581.43,21.72,0000 0000 0000 0000 000000
2017-04-03 08:19:39,0.13,2.87,0.00,25.05,27.37,30.52,14.03,48.76,998.56,2028.01,2532.76,2357.88,2704.98,599.94,581.35,21.77,0000 0000 0000 0000 000000
2017-04-03 08:24:40,0.12,2.87,0.00,25.01,27.37,30.53,14.15,48.79,998.58,2028.00,2531.07,2356.68,2703.54,600.23,581.74,21.82,0000 0000 0000 0000 000000
2017-04-03 08:29:42,0.12,2.88,0.00,25.00,27.35,30.54,14.15,48.77,998.99,2028.01,2529.36,2355.47,2702.01,600.26,581.99,21.87,0000 0000 0000 0000 000000
2017-04-03 08:34:43,0.11,2.89,0.00,24.97,27.35,30.53,14.12,48.83,998.99,2028.02,2527.86,2354.30,2700.56,600.11,581.82,21.92,0000 0000 0000 0000 000000
2017-04-03 08:39:44,0.12,2.89,0.00,24.97,27.35,30.56,14.11,48.85,998.96,2028.01,2526.20,2353.05,2699.15,599.79,581.65,21.97,0000 0000 0000 0000 000000
2017-04-03 08:44:46,0.12,2.90,0.00,24.95,27.34,30.57,14.11,48.98,998.97,2028.04,2524.61,2351.84,2697.70,599.99,581.85,22.02,0000 0000 0000 0000 000000
2017-04-03 08:49:47,0.11,2.90,0.00,24.95,27.32,30.56,14.07,49.01,998.87,2028.05,2523.11,2350.68,2696.35,599.93,581.73,22.07,0000 0000 0000 0000 000000
2017-04-03 08:54:48,0.12,2.91,0.00,24.91,27.32,30.60,14.16,48.83,999.04,2028.02,2521.38,2349.42,2694.68,600.07,582.14,22.12,0000 0000 0000 0000 000000
2017-04-03 08:59:50,0.11,2.92,0.00,24.88,27.32,30.60,14.24,49.14,999.03,2028.04,2519.76,2348.15,2693.24,600.23,582.25,22.17,0000 0000 0000 0000 000000
2017-04-03 09:04:51,0.10,2.92,0.00,24.83,27.32,30.61,14.09,49.02,999.13,2028.07,2518.18,2346.99,2691.92,599.83,582.12,22.22,0000 0000 0000 0000 000000
2017-04-03 09:09:52,0.14,2.93,0.00,24.72,27.30,30.59,14.12,49.12,999.15,2028.03,2516.66,2345.78,2690.44,599.90,582.29,22.27,0000 0000 0000 0000 000000
2017-04-03 09:14:53,0.12,2.94,0.00,24.49,27.30,30.57,14.23,48.86,999.36,2028.04,2515.02,2344.49,2688.92,600.01,582.86,22.32,0000 0000 0000 0000 000000
2017-04-03 09:19:55,0.12,2.94,0.00,24.33,27.29,30.62,14.14,48.83,999.53,2028.08,2513.32,2343.26,2687.49,599.84,583.22,22.37,0000 0000 0000 0000 000000
2017-04-03 09:24:56,0.12,2.95,0.00,24.22,27.27,30.70,14.21,48.92,999.57,2028.12,2511.65,2342.12,2686.15,600.21,583.92,22.42,0000 0000 0000 0000 000000
2017-04-03 09:29:57,0.12,2.95,0.00,24.13,27.26,30.72,14.21,48.92,999.69,2028.14,2510.29,2340.86,2684.68,599.61,583.44,22.47,0000 0000 0000 0000 000000
2017-04-03 09:34:58,0.13,2.96,0.00,24.07,27.25,30.75,14.20,48.84,999.99,2028.20,2508.44,2339.66,2683.32,599.65,583.92,22.52,0000 0000 0000 0000 000000
2017-04-03 09:40:00,0.15,2.97,0.00,23.96,27.24,30.79,14.22,48.97,1000.01,2028.42,2506.82,2338.54,2681.86,599.73,584.14,22.57,0000 0000 0000 0000 000000
2017-04-03 09:45:01,0.10,2.97,0.00,23.86,27.22,30.81,14.24,49.01,1000.02,2028.52,2505.17,2337.37,2680.54,600.02,584.63,22.62,0000 0000 0000 0000 000000
2017-04-03 09:50:02,0.13,2.98,0.00,23.79,27.22,30.83,14.28,48.96,1000.02,2028.57,2503.56,2336.29,2679.14,599.99,584.61,22.67,0000 0000 0000 0000 000000
2017-04-03 09:55:03,0.13,2.99,0.00,23.78,27.20,30.88,14.26,48.95,1000.01,2028.86,2501.95,2335.08,2677.75,600.01,584.78,22.72,0000 0000 0000 0000 000000
2017-04-03 10:00:05,0.12,2.99,0.00,23.78,27.20,30.89,14.31,49.02,1000.04,2028.93,2500.56,2333.88,2676.40,600.28,585.09,22.77,0000 0000 0000 0000 000000
2017-04-03 10:05:06,0.12,3.00,0.00,23.74,27.20,30.87,14.26,48.93,1000.07,2028.93,2498.88,2332.69,2674.88,599.70,584.55,22.82,0000 0000 0000 0000 000000
2017-04-03 10:10:07,0.11,3.01,0.00,23.71,27.20,30.92,14.33,48.94,1000.09,2028.94,2497.43,2331.54,2673.54,599.85,584.94,22.87,0000 0000 0000 0000 000000
2017-04-03 10:15:09,0.11,3.01,0.00,23.66,27.21,30.95,14.30,48.93,1000.39,2028.94,2495.88,2330.35,2672.15,599.80,585.02,22.92,0000 0000 0000 0000 000000
2017-04-03 10:20:10,0.09,3.02,0.00,23.63,27.22,30.99,14.28,48.92,1000.50,2028.86,2494.61,2329.26,2670.83,599.91,585.26,22.97,0000 0000 0000 0000 000000
2017-04-03 10:25:11,0.11,3.02,0.00,23.60,27.22,31.04,14.37,48.98,1000.59,2028.88,2493.13,2328.13,2669.47,600.04,585.58,23.02,0000 0000 0000 0000 000000
2017-04-03 10:30:13,0.08,3.03,0.00,23.58,27.22,31.07,14.28,49.08,1000.90,2028.77,2491.73,2327.08,2668.23,599.96,585.76,23.07,0000 0000 0000 0000 000000
2017-04-03 10:35:14,0.07,3.03,0.00,23.53,27.22,31.09,14.35,48.98,1000.91,2028.57,2490.51,2325.98,2667.01,599.97,585.78,23.12,0000 0000 0000 0000 000000
2017-04-03 10:40:15,0.12,3.04,0.00,23.48,27.22,31.10,14.32,49.06,1000.99,2028.38,2488.75,2324.80,2665.60,600.10,585.97,23.17,0000 0000 0000 0000 000000
2017-04-03 10:45:17,0.08,3.04,0.00,23.42,27.23,31.12,14.24,48.98,1001.00,2028.27,2487.21,2323.77,2664.24,599.62,585.60,23.22,0000 0000 0000 0000 000000
2017-04-03 10:50:18,0.11,3.05,0.00,23.37,27.24,31.10,14.39,48.97,1001.10,2028.21,2485.85,2322.67,2663.06,600.18,586.36,23.27,0000 0000 0000 0000 000000
2017-04-03 10:55:20,0.08,3.05,0.00,23.36,27.24,31.12,14.37,49.02,1001.40,2028.13,2484.50,2321.76,2661.89,600.11,586.52,23.32,0000 0000 0000 0000 000000
2017-04-03 11:00:21,0.15,3.06,0.00,23.29,27.24,31.10,14.31,48.87,1001.42,2028.11,2482.82,2320.51,2660.49,600.04,586.55,23.37,0000 0000 0000 0000 000000
2017-04-03 11:05:22,0.07,3.06,0.00,23.26,27.23,31.12,14.36,48.90,1001.48,2028.07,2481.46,2319.51,2659.28,600.02,586.56,23.42,0000 0000 0000 0000 000000
2017-04-03 11:10:23,0.08,3.07,0.00,23.24,27.22,31.10,14.43,48.96,1001.49,2028.07,2480.25,2318.65,2658.18,600.26,586.93,23.47,0000 0000 0000 0000 000000
2017-04-03 11:15:24,0.10,3.07,0.00,23.22,27.22,31.03,14.39,48.87,1001.49,2028.07,2478.92,2317.63,2657.05,599.95,586.66,23.52,0000 0000 0000 0000 000000
2017-04-03 11:20:25,0.11,3.08,0.00,23.18,27.22,31.06,14.33,48.84,1001.53,2028.11,2477.50,2316.63,2655.81,599.90,586.74,23.57,0000 0000 0000 0000 000000
2017-04-03 11:25:27,0.06,3.08,0.00,23.13,27.22,31.06,14.32,48.92,1001.49,2028.11,2476.35,2315.79,2654.80,599.92,586.80,23.62,0000 0000 0000 0000 000000
2017-04-03 11:30:28,0.09,3.09,0.00,23.08,27.21,31.06,14.33,49.17,1001.50,2028.07,2475.06,2314.86,2653.57,599.54,586.59,23.67,0000 0000 0000 0000 000000
2017-04-03 11:35:29,0.11,3.09,0.00,22.99,27.20,30.99,14.44,49.17,1001.50,2028.02,2473.70,2313.78,2652.47,600.01,587.20,23.72,0000 0000 0000 0000 000000
2017-04-03 11:40:31,0.08,3.10,0.00,22.95,27.19,30.97,14.45,49.17,1001.51,2028.09,2472.29,2312.84,2651.33,600.32,587.63,23.77,0000 0000 0000 0000 000000
2017-04-03 11:45:32,0.09,3.10,0.00,22.89,27.17,30.93,14.38,49.08,1001.57,2028.13,2471.02,2311.98,2650.18,600.03,587.54,23.82,0000 0000 0000 0000 000000
2017-04-03 11:50:32,0.11,3.11,0.00,22.85,27.15,30.87,14.35,48.97,1001.82,2028.20,2469.66,2311.06,2649.13,599.87,587.63,23.87,0000 0000 0000 0000 000000
2017-04-03 11:55:34,0.15,3.11,0.00,22.79,27.13,30.78,14.27,49.09,1001.88,2028.73,2468.48,2310.13,2648.09,599.47,587.47,23.92,0000 0000 0000 0000 000000
2017-04-03 12:00:35,0.10,3.12,0.00,22.74,27.11,30.71,14.45,49.09,1001.90,2028.91,2467.33,2309.28,2647.12,600.08,588.00,23.97,0000 0000 0000 0000 000000
2017-04-03 12:05:36,0.11,3.12,0.00,22.73,27.10,30.66,14.43,48.92,1001.97,2028.97,2465.80,2308.41,2646.02,599.92,587.91,24.02,0000 0000 0000 0000 000000
2017-04-03 12:10:38,0.08,3.13,0.00,22.71,27.07,30.68,14.41,49.01,1001.97,2028.98,2464.66,2307.53,2645.05,600.16,588.19,24.07,0000 0000 0000 0000 000000
2017-04-03 12:15:39,0.07,3.13,0.00,22.69,27.05,30.60,14.35,48.94,1001.97,2028.99,2463.55,2306.77,2644.04,599.88,588.00,24.12,0000 0000 0000 0000 000000
2017-04-03 12:20:40,0.08,3.14,0.00,22.68,27.02,30.59,14.44,48.97,1002.04,2028.99,2462.33,2305.90,2642.98,600.25,588.37,24.17,0000 0000 0000 0000 000000
2017-04-03 12:25:41,0.07,3.14,0.00,22.63,27.00,30.60,14.42,48.97,1002.05,2028.99,2461.28,2305.06,2642.06,600.20,588.43,24.22,0000 0000 0000 0000 000000
2017-04-03 12:30:42,0.09,3.15,0.00,22.62,26.98,30.58,14.46,49.11,1002.07,2028.99,2460.20,2304.29,2641.15,600.20,588.37,24.27,0000 0000 0000 0000 000000
2017-04-03 12:35:43,0.08,3.15,0.00,22.61,26.96,30.53,14.35,49.01,1002.33,2029.00,2459.13,2303.55,2640.26,599.99,588.34,24.32,0000 0000 0000 0000 000000
2017-04-03 12:40:45,0.08,3.15,0.00,22.57,26.94,30.56,14.34,49.00,1002.41,2029.01,2457.85,2302.83,2639.17,600.02,588.58,24.37,0000 0000 0000 0000 000000
2017-04-03 12:45:46,0.06,3.16,0.00,22.57,26.92,30.55,14.46,49.00,1002.42,2029.04,2456.97,2302.05,2638.33,600.24,588.71,24.42,0000 0000 0000 0000 000000
2017-04-03 12:50:48,0.07,3.16,0.00,22.57,26.90,30.51,14.43,49.18,1002.44,2029.05,2456.15,2301.41,2637.59,600.16,588.75,24.47,0000 0000 0000 0000 000000
2017-04-03 12:55:49,0.09,3.17,0.00,22.50,26.88,30.49,14.43,48.93,1002.45,2029.10,2455.07,2300.62,2636.63,599.62,588.43,24.52,0000 0000 0000 0000 000000
2017-04-03 13:00:50,0.04,3.17,0.00,22.51,26.86,30.47,14.44,49.05,1002.46,2029.10,2454.27,2299.96,2635.88,599.79,588.50,24.57,0000 0000 0000 0000 000000